Regional Weather Roundup
Issued by NWS

Home | Current Version | Previous Version | Text Only | Print | Product List | Glossary Off
Versions: 1 2 3 4 5 6 7 8 9 10 11 12 13 14 15 16 17 18 19 20 21 22 23 24 25 26 27 28 29 30 31 32 33 34 35 36 37 38 39 40 41 42 43 44 45 46 47 48 49 50

000
ASUS45 KBOU 170507
RWRCO

WEATHER ROUNDUP FOR COLORADO
NATIONAL WEATHER SERVICE DENVER/BOULDER CO
1000 PM MST TUE DEC 16 2014

NOTE: "FAIR" INDICATES FEW OR NO CLOUDS BELOW 12000 FEET WITH NO
SIGNIFICANT WEATHER AND/OR OBSTRUCTIONS TO VISIBILITY.

COZ001>005-013-030-031-170600-
...NORTHWEST COLORADO...

CITY           SKY/WX    TMP DP  RH WIND       PRES   REMARKS
CRAIG          CLOUDY    19  17  92 NW5       30.06F WCI  12
HAYDEN         CLOUDY    21  19  93 SE3       30.05S
MEEKER         CLOUDY    22  19  89 CALM      30.06R
MOUNT WERNER   NOT AVBL
STEAMBOAT SPGS CLOUDY    20  18  93 E3        30.05S
WALDEN         MOCLDY    14  10  85 SE6       30.03F WCI   5
$$

COZ006>008-011-170600-
...WEST CENTRAL VALLEYS...

CITY           SKY/WX    TMP DP  RH WIND       PRES   REMARKS
GRAND JUNCTION CLOUDY    32  29  88 W3        30.06R
MONTROSE       CLOUDY    31  26  82 SE6       30.08S WCI  25
EAGLE          PTCLDY    10  10 100 E7        30.14S WCI   0
RIFLE          CLOUDY    27  24  89 CALM      30.08S
DELTA          CLOUDY    34  27  75 NE5       30.07S WCI  30
NUCLA          CLOUDY    32  28  86 SE3       30.09F
$$

COZ017>023-064>068-170600-
...SOUTHWEST COLORADO...

CITY           SKY/WX    TMP DP  RH WIND       PRES   REMARKS
DURANGO        MOCLDY    31  25  78 E3        30.09S
CORTEZ         MOCLDY    32  25  75 CALM      30.06S
PAGOSA SPRINGS MOCLDY    27  26  97 CALM      30.11F
TELLURIDE      MOCLDY    32  18  56 CALM      30.10S
WOLF CREEK PAS PTCLDY    16  12  86 MISG      30.12F
$$

COZ009-010-012-014-032>034-037-058>063-170600-
...CENTRAL COLORADO...

CITY           SKY/WX    TMP DP  RH WIND       PRES   REMARKS
ASPEN          PTCLDY    19  17  92 CALM      30.04S
BUENA VISTA    CLEAR     19  11  71 W7        30.07S WCI   9
COPPER MTN     PTCLDY    23  14  68 S10G24    30.07F WCI  12
BERTHOUD PASS  FAIR      14   9  79 MISG      30.07F
COTTONWOOD PAS CLEAR     30  18  59 NW7       30.06F WCI  23
GUNNISON       PTCLDY    16   9  73 CALM      30.13R
KREMMLING      PTCLDY     1  -4  78 CALM      30.12S FOG
LEADVILLE      PTCLDY    19  13  77 E5        30.05S WCI  12
MONARCH PASS   PTCLDY    18  12  79 MISG      30.18F
SALIDA         CLEAR     34  15  46 SW8       30.12F WCI  27
SUNLIGHT       CLOUDY    23  21  93 CALM      30.09S
WILKERSON PASS PTCLDY    19  12  73 SW8G18    30.08S WCI   9
$$

COZ069>075-170600-
...SAN LUIS VALLEY/SANGRE DE CRISTO MOUNTAINS...

CITY           SKY/WX    TMP DP  RH WIND       PRES   REMARKS
ALAMOSA        PTCLDY    14  10  84 W3        30.10S
LA VETA PASS   PTCLDY    23  12  63 S13G22    30.04F WCI  11
SAGUACHE       CLEAR     19  10  68 NW8       30.11F WCI   9
$$

COZ035-036-038>040-170600-
...NORTHERN COLORADO FRONT RANGE...

CITY           SKY/WX    TMP DP  RH WIND       PRES   REMARKS
DENVER INTL AP PTCLDY    25  19  78 CALM      30.03R
DMNS CITY PARK   N/A     27  22  80 SE2       30.03S
AURORA         PTCLDY    23  19  85 S6        30.03S WCI  16
FRONT RANGE AP PTCLDY    27  21  80 SW5       30.03S WCI  21
ERIE MUNI ARPT   N/A     21  20  94 CALM      30.04F
BOULDER MUN AP PTCLDY    27  23  86 CALM      30.03S
CENTENNIAL     PTCLDY    24  17  74 CALM      30.01F
BROOMFIELD     PTCLDY    28  23  80 MISG        N/A
FORT COLLINS   CLEAR     21  16  79 CALM      30.05F
LONGMONT       CLEAR     22  19  85 CALM      30.06S
$$

COZ041-046-047-076>085-087-088-170600-
...PIKES PEAK/PALMER DIVIDE AND SOUTHERN FOOTHILLS...

CITY           SKY/WX    TMP DP  RH WIND       PRES   REMARKS
COLO. SPRINGS  PTCLDY    22  14  71 NW5       30.02F WCI  16
A. F. ACADEMY  CLEAR     19  15  82 N5        30.00F WCI  12
ELLICOTT       NOT AVBL
FALCON         CLEAR     27  17  66 CALM      30.01F
FORT CARSON    CLEAR     18  14  82 NW6       30.01F WCI  10
LIMON          PTCLDY    11   9  92 N3        30.05F
MONUMENT HILL  PTCLDY    23  14  68 W8        29.99F WCI  14
TRINIDAD       CLEAR     34  22  61 W10       30.00F WCI  26
$$

COZ042>045-048>051-090-091-170600-
...NORTHEAST COLORADO...

CITY           SKY/WX    TMP DP  RH WIND       PRES   REMARKS
GREELEY ARPT   PTCLDY    27  18  69 CALM      30.04F
AKRON          FOG       20  19  96 SE9       30.07S VSB 1/4 WCI   9
BURLINGTON     PTCLDY    23  18  81 E14       30.10F WCI  11
WRAY           MOCLDY    24  23  94 E9        30.13F WCI  15
STERLING       PTCLDY    27  25  93 CALM      30.09F
HOLYOKE        NOT AVBL
FORT MORGAN    CLOUDY    21  18  88 E10       30.06F WCI  10
$$

COZ086-089-092>099-170600-
...SOUTHEAST COLORADO...

CITY           SKY/WX    TMP DP  RH WIND       PRES   REMARKS
PUEBLO         NOT AVBL
LA JUNTA       PTCLDY    26  23  88 NW7       30.03F WCI  18
LAMAR          MOCLDY    32  27  81 CALM      30.04R
SPRINGFIELD      N/A     36  25  64 S21G28    30.02F
$$


USA.gov is the U.S. government's official web portal to all federal, state and local government web resources and services.